Regional Weather Roundup
Issued by NWS Charleston, WV

Home | Current Version | Previous Version | Graphics & Text | Print | Product List | Glossary On
Versions: 1 2 3 4 5 6 7 8 9 10 11 12 13 14 15 16 17 18 19 20 21 22 23 24 25 26 27 28 29 30 31 32 33 34 35 36 37 38 39 40 41 42 43 44 45 46 47 48 49 50
000
ASUS41 KRLX 230410
RWRRLX
West Virginia Regional Weather Roundup
National Weather Service Charleston WV
1100 PM EST SAT NOV 22 2014

Note: "fair" indicates few or no clouds below 12,000 feet with no
significant weather and/or obstructions to visibility.

WVZ003-230500-
Northern Panhandle of West Virginia

CITY           SKY/WX    TMP DP  RH WIND       PRES   REMARKS
WHEELING       CLOUDY    52  28  39 SW12      30.09F
$$

WVZ009-230500-
Northwest West Virginia

CITY           SKY/WX    TMP DP  RH WIND       PRES   REMARKS
PARKERSBURG    PTCLDY    50  26  39 S6        30.14F
$$

WVZ006-230500-
Western West Virginia

CITY           SKY/WX    TMP DP  RH WIND       PRES   REMARKS
HUNTINGTON     PTCLDY    50  23  34 S5        30.13S
$$

WVZ015-230500-
West Central West Virginia

CITY           SKY/WX    TMP DP  RH WIND       PRES   REMARKS
CHARLESTON     PTCLDY    45  26  47 S5        30.15S
$$

WVZ022-031-230500-
North Central West Virginia

CITY           SKY/WX    TMP DP  RH WIND       PRES   REMARKS
CLARKSBURG     CLOUDY    48  28  46 CALM      30.14F
MORGANTOWN     CLOUDY    48  25  40 S5        30.14F
$$

WVZ025-035-042-045-230500-
Southern West Virginia

CITY           SKY/WX    TMP DP  RH WIND       PRES   REMARKS
BECKLEY        CLEAR     43  16  33 SE10      30.18F
LOGAN            N/A     52  19  28 S8        30.15F
BLUEFIELD      CLEAR     44  15  31 SE5       30.21S
LEWISBURG      CLOUDY    32  23  69 CALM      30.22F
$$

WVZ047-230500-
Northern Mountains of West Virginia

CITY           SKY/WX    TMP DP  RH WIND       PRES   REMARKS
ELKINS         CLOUDY    33  30  88 CALM      30.18F
$$

WVZ052-230500-
Eastern Panhandle of West Virginia

CITY           SKY/WX    TMP DP  RH WIND       PRES   REMARKS
MARTINSBURG    CLOUDY    33  21  61 S5        30.20F
PETERSBURG     CLOUDY    48  15  27 S10       30.18F
$$


USA.gov is the U.S. government's official web portal to all federal, state and local government web resources and services.